Nottingham - eastern half: Past 24 Hour Conditions

 

Coral Harbour Airport

03:00 AM EST 01 October 2014
This table is a summary of hourly weather conditions for the past 24 hours.
Date / Time
(EST)
Wind(knots) Conditions Visibility(km) Pressure(kPa) Air tempC) Relative humidity(%) Dew pointC) Wind Chill
01 October 2014
3:00 WNW 4 Mainly Clear 24 102.2 -8 76 -11 -12
2:00 NW 8 Mainly Clear 24 102.1 -8 73 -12 -14
1:00 WNW 5 Mainly Clear 24 102.1 -7 74 -11 -12
0:00 WNW 8 Mostly Cloudy 24 102.1 -9 75 -12 -15
30 September 2014
23:00 WNW 8 Cloudy 24 102.1 -7 73 -11 -14
22:00 NW 12 Cloudy 24 102.1 -7 69 -12 -14
21:00 NW 13 Cloudy 24 102.1 -6 69 -11 -14
20:00 NW 14 Cloudy 24 102.1 -6 71 -11 -14
19:00 NNW 13 Cloudy 24 102.1 -6 68 -11 -14
18:00 NW 12 gust 18 Cloudy 24 102.0 -6 70 -11 -14
17:00 NW 15 gust 21 Mostly Cloudy 24 102.0 -5 65 -11 -13
16:00 NW 17 gust 22 Cloudy 24 102.0 -5 62 -11 -13
15:00 NW 19 gust 26 Cloudy 24 102.0 -5 63 -11 -14
14:00 NW 20 Mainly Sunny 24 101.9 -4 62 -10 -13
13:00 NW 18 gust 25 Partly Cloudy 24 101.9 -4 64 -10 -12
12:00 NW 20 Partly Cloudy 24 101.8 -4 65 -10 -12
11:00 NW 19 gust 24 Partly Cloudy 24 101.8 -4 66 -10 -13
10:00 NW 20 gust 27 Light Snow 24 101.8 -5 67 -10 -14
9:00 NNW 23 gust 28 Partly Cloudy 24 101.7 -5 71 -9 -14
8:00 NNW 23 Partly Cloudy 24 101.7 -6 77 -9 -16
7:00 NNW 15 Mainly Sunny 24 101.7 -6 78 -10 -14
6:00 N/A N/A N/A N/A N/A N/A N/A *
5:00 N 9 Clear 24 101.6 -8 79 -11 -15
4:00 NW 8 Mainly Clear 24 101.6 -8 79 -11 -15
3:00 NW 11 Mostly Cloudy 24 101.6 -7 79 -10 -15
 
Map of Arctic - Eastern Arctic marine weather areas Baker Lake Airport Chesterfield Inlet Airport Coral Harbour Airport Gjoa Haven Airport Kugaaruk Airport Rankin Inlet Airport Shepherd Bay Airport Whale Cove Airport Arctic Bay Brevoort Island Qikiqtarjuaq Airport Cape Dorset Airport Cape Dyer Cape Hooper Clyde Airport Grise Fiord Airport Hall Beach Airport Igloolik Airport Iqaluit Airport Longstaff Bluff Pangnirtung Airport Pond Inlet Airport Repulse Bay Airport Resolute Airport Resolution Island Rowley Island Airport Taloyoak Airport Wager Bay Akulivik Airport Ivujivik Airport Puvirnituq Airport Kangiqsujuaq Airport Kangirsuk Airport Quaqtaq Airport Tasiujaq Airport Cape Kakkiviak Cape Kiglapait Nain Airport Saglek Cape Mercy Kimmirut Airport Aupaluk Airport Salluit Airport Kangiqsualujjuaq Airport Fort Ross
Legend: buoyBuoy land stationLand Station